TimeEDT,TemperatureF,Dew PointF,Humidity,Sea Level PressureIn,VisibilityMPH,Wind Direction,Wind SpeedMPH,Gust SpeedMPH,PrecipitationIn,Events,Conditions,WindDirDegrees,DateUTC
12:15 AM,53.6,51.8,94,30.19,6.0,East,3.5,-,N/A,,Overcast,100,2013-04-30 04:15:00
12:35 AM,53.6,51.8,94,30.18,1.8,East,3.5,-,0.01,,Overcast,90,2013-04-30 04:35:00
12:55 AM,53.6,53.6,100,30.18,1.8,East,3.5,-,0.01,,Overcast,80,2013-04-30 04:55:00
1:15 AM,53.6,51.8,94,30.18,2.0,East,5.8,-,N/A,,Overcast,90,2013-04-30 05:15:00
1:35 AM,53.6,51.8,94,30.18,3.0,East,6.9,-,0.01,,Overcast,100,2013-04-30 05:35:00
1:55 AM,53.6,51.8,94,30.18,2.0,East,5.8,-,0.01,,Overcast,80,2013-04-30 05:55:00
2:15 AM,51.8,51.8,100,30.18,2.0,East,5.8,-,N/A,,Overcast,90,2013-04-30 06:15:00
2:35 AM,51.8,51.8,100,30.18,2.5,East,5.8,-,N/A,,Overcast,100,2013-04-30 06:35:00
2:55 AM,51.8,50.0,94,30.18,2.0,ENE,6.9,-,N/A,,Overcast,70,2013-04-30 06:55:00
3:15 AM,51.8,50.0,94,30.18,2.5,East,6.9,-,N/A,,Overcast,90,2013-04-30 07:15:00
3:35 AM,50.0,50.0,100,30.19,3.0,East,4.6,-,N/A,,Overcast,80,2013-04-30 07:35:00
3:55 AM,50.0,50.0,100,30.19,8.0,East,8.1,-,N/A,,Overcast,90,2013-04-30 07:55:00
4:15 AM,50.0,50.0,100,30.19,7.0,East,4.6,-,N/A,,Overcast,90,2013-04-30 08:15:00
4:35 AM,50.0,50.0,100,30.19,6.0,East,4.6,-,N/A,,Overcast,80,2013-04-30 08:35:00
4:55 AM,50.0,50.0,100,30.20,5.0,East,4.6,-,N/A,,Overcast,90,2013-04-30 08:55:00
5:15 AM,50.0,50.0,100,30.20,5.0,East,6.9,-,N/A,,Overcast,90,2013-04-30 09:15:00
5:35 AM,50.0,48.2,94,30.20,10.0,East,5.8,-,N/A,,Overcast,80,2013-04-30 09:35:00
5:55 AM,50.0,48.2,94,30.21,10.0,ENE,4.6,-,N/A,,Overcast,70,2013-04-30 09:55:00
6:15 AM,50.0,48.2,94,30.22,10.0,ENE,4.6,-,N/A,,Overcast,70,2013-04-30 10:15:00
6:35 AM,50.0,48.2,94,30.23,10.0,ENE,3.5,-,N/A,,Overcast,70,2013-04-30 10:35:00
6:55 AM,50.0,48.2,94,30.24,10.0,ENE,3.5,-,N/A,,Overcast,70,2013-04-30 10:55:00
7:15 AM,50.0,48.2,94,30.24,10.0,ENE,4.6,-,N/A,,Overcast,70,2013-04-30 11:15:00
7:35 AM,50.0,48.2,94,30.25,10.0,East,3.5,-,N/A,,Overcast,80,2013-04-30 11:35:00
7:55 AM,50.0,48.2,94,30.26,10.0,East,4.6,-,N/A,,Overcast,80,2013-04-30 11:55:00
8:15 AM,51.8,48.2,88,30.26,10.0,East,3.5,-,N/A,,Overcast,90,2013-04-30 12:15:00
8:35 AM,53.6,50.0,88,30.27,10.0,East,5.8,-,N/A,,Overcast,90,2013-04-30 12:35:00
8:55 AM,55.4,50.0,82,30.27,10.0,East,5.8,-,N/A,,Mostly Cloudy,100,2013-04-30 12:55:00
9:15 AM,55.4,50.0,82,30.27,10.0,East,4.6,-,N/A,,Mostly Cloudy,90,2013-04-30 13:15:00
9:35 AM,55.4,50.0,82,30.27,10.0,East,10.4,-,N/A,,Mostly Cloudy,100,2013-04-30 13:35:00
9:55 AM,55.4,50.0,82,30.27,10.0,ENE,8.1,-,N/A,,Scattered Clouds,70,2013-04-30 13:55:00
10:15 AM,57.2,50.0,77,30.26,10.0,East,8.1,-,N/A,,Clear,90,2013-04-30 14:15:00
10:35 AM,59.0,48.2,67,30.27,10.0,East,8.1,-,N/A,,Clear,100,2013-04-30 14:35:00
10:55 AM,59.0,46.4,63,30.27,10.0,East,11.5,17.3,N/A,,Clear,80,2013-04-30 14:55:00
11:15 AM,60.8,46.4,59,30.27,10.0,East,5.8,-,N/A,,Clear,90,2013-04-30 15:15:00
11:35 AM,60.8,46.4,59,30.27,10.0,ESE,9.2,-,N/A,,Clear,110,2013-04-30 15:35:00
11:55 AM,60.8,46.4,59,30.26,10.0,East,8.1,-,N/A,,Clear,80,2013-04-30 15:55:00
12:15 PM,62.6,46.4,55,30.26,10.0,East,11.5,16.1,N/A,,Clear,100,2013-04-30 16:15:00
12:35 PM,62.6,44.6,52,30.26,10.0,East,9.2,-,N/A,,Clear,90,2013-04-30 16:35:00
12:55 PM,64.4,46.4,52,30.26,9.0,East,6.9,-,N/A,,Clear,80,2013-04-30 16:55:00
1:15 PM,64.4,46.4,52,30.26,10.0,ESE,4.6,-,N/A,,Partly Cloudy,110,2013-04-30 17:15:00
1:35 PM,64.4,46.4,52,30.25,10.0,ESE,9.2,-,N/A,,Partly Cloudy,110,2013-04-30 17:35:00
1:55 PM,64.4,48.2,56,30.25,10.0,East,9.2,-,N/A,,Scattered Clouds,100,2013-04-30 17:55:00
2:15 PM,64.4,48.2,56,30.25,10.0,ESE,6.9,-,N/A,,Scattered Clouds,120,2013-04-30 18:15:00
2:35 PM,64.4,48.2,56,30.26,10.0,East,9.2,17.3,N/A,,Mostly Cloudy,90,2013-04-30 18:35:00
2:55 PM,66.2,46.4,49,30.25,10.0,ESE,6.9,-,N/A,,Mostly Cloudy,120,2013-04-30 18:55:00
3:15 PM,66.2,44.6,46,30.25,10.0,East,10.4,17.3,N/A,,Partly Cloudy,100,2013-04-30 19:15:00
3:35 PM,66.2,41.0,40,30.25,10.0,East,9.2,-,N/A,,Partly Cloudy,80,2013-04-30 19:35:00
3:55 PM,66.2,41.0,40,30.26,10.0,East,9.2,-,N/A,,Clear,90,2013-04-30 19:55:00
4:15 PM,66.2,41.0,40,30.26,10.0,SE,4.6,-,N/A,,Clear,130,2013-04-30 20:15:00
4:35 PM,66.2,41.0,40,30.27,10.0,East,5.8,-,N/A,,Clear,100,2013-04-30 20:35:00
4:55 PM,66.2,41.0,40,30.27,10.0,East,8.1,-,N/A,,Clear,100,2013-04-30 20:55:00
5:15 PM,66.2,39.2,37,30.27,10.0,SE,8.1,-,N/A,,Clear,130,2013-04-30 21:15:00
5:35 PM,66.2,41.0,40,30.27,10.0,ESE,10.4,-,N/A,,Clear,110,2013-04-30 21:35:00
5:55 PM,64.4,41.0,42,30.27,10.0,ENE,9.2,17.3,N/A,,Clear,60,2013-04-30 21:55:00
6:15 PM,64.4,39.2,40,30.28,10.0,East,12.7,18.4,N/A,,Clear,100,2013-04-30 22:15:00
6:35 PM,62.6,37.4,39,30.28,10.0,ENE,10.4,18.4,N/A,,Clear,70,2013-04-30 22:35:00
6:55 PM,60.8,35.6,39,30.29,10.0,East,11.5,19.6,N/A,,Clear,80,2013-04-30 22:55:00
7:15 PM,60.8,32.0,34,30.29,10.0,East,9.2,-,N/A,,Clear,90,2013-04-30 23:15:00
7:35 PM,59.0,32.0,36,30.30,10.0,East,5.8,-,N/A,,Clear,80,2013-04-30 23:35:00
7:55 PM,59.0,32.0,36,30.30,10.0,East,5.8,-,N/A,,Clear,80,2013-04-30 23:55:00
8:15 PM,57.2,30.2,36,30.30,10.0,East,5.8,-,N/A,,Clear,80,2013-05-01 00:15:00
8:35 PM,55.4,28.4,36,30.30,10.0,East,5.8,-,N/A,,Clear,90,2013-05-01 00:35:00
8:55 PM,55.4,28.4,36,30.31,10.0,East,5.8,-,N/A,,Clear,80,2013-05-01 00:55:00
9:15 PM,55.4,28.4,36,30.31,10.0,East,5.8,-,N/A,,Clear,90,2013-05-01 01:15:00
9:35 PM,53.6,28.4,38,30.32,10.0,East,4.6,-,N/A,,Clear,80,2013-05-01 01:35:00
9:55 PM,53.6,30.2,41,30.33,10.0,ENE,3.5,-,N/A,,Clear,70,2013-05-01 01:55:00
10:15 PM,51.8,32.0,47,30.33,10.0,East,3.5,-,N/A,,Clear,80,2013-05-01 02:15:00
10:35 PM,50.0,32.0,50,30.33,10.0,East,3.5,-,N/A,,Clear,80,2013-05-01 02:35:00
10:55 PM,50.0,30.2,47,30.33,10.0,ENE,3.5,-,N/A,,Clear,70,2013-05-01 02:55:00
11:15 PM,48.2,32.0,54,30.33,10.0,East,3.5,-,N/A,,Clear,80,2013-05-01 03:15:00
11:35 PM,48.2,32.0,54,30.33,10.0,East,3.5,-,N/A,,Clear,80,2013-05-01 03:35:00